Time,TemperatureF,DewpointF,PressureIn,WindDirection,WindDirectionDegrees,WindSpeedMPH,WindSpeedGustMPH,Humidity,HourlyPrecipIn,Conditions,Clouds,dailyrainin,SolarRadiationWatts/m^2,SoftwareType,DateUTC
2013-01-21 01:00:00,0.0,-4.0,30.35,ESE,102,3.0,5.0,84,-99.99,,,-99.99,1.330000,,2013-01-21 08:00:00,
2013-01-21 01:53:00,0.0,-4.0,30.35,ESE,102,3.0,5.0,84,-99.99,,,-99.99,1.330000,,2013-01-21 08:53:00,
2013-01-21 02:00:00,-1.0,-5.0,30.35,SSE,152,4.0,4.0,84,-99.99,,,-99.99,0.990000,,2013-01-21 09:00:00,
2013-01-21 02:53:00,-1.0,-5.0,30.35,SSE,152,4.0,4.0,84,-99.99,,,-99.99,0.990000,,2013-01-21 09:53:00,
2013-01-21 03:00:00,1.0,-2.0,30.36,SSE,149,5.0,6.0,86,-99.99,,,-99.99,1.250000,,2013-01-21 10:00:00,
2013-01-21 03:53:00,1.0,-2.0,30.36,SSE,149,5.0,6.0,86,-99.99,,,-99.99,1.250000,,2013-01-21 10:53:00,
2013-01-21 04:00:00,7.0,4.0,30.36,East,100,3.0,6.0,88,-99.99,,,-99.99,1.290000,,2013-01-21 11:00:00,
2013-01-21 04:53:00,7.0,4.0,30.36,East,100,3.0,6.0,88,-99.99,,,-99.99,1.290000,,2013-01-21 11:53:00,
2013-01-21 05:00:00,0.0,-4.0,30.35,NE,52,0.0,5.0,83,-99.99,,,-99.99,1.300000,,2013-01-21 12:00:00,
2013-01-21 05:53:00,0.0,-4.0,30.35,NE,52,0.0,5.0,83,-99.99,,,-99.99,1.300000,,2013-01-21 12:53:00,
2013-01-21 07:00:00,2.0,-1.0,-100.00,SE,145,2.0,5.0,85,-99.99,,,-99.99,0.900000,,2013-01-21 14:00:00,
2013-01-21 07:53:00,2.0,-1.0,-100.00,SE,145,2.0,5.0,85,-99.99,,,-99.99,0.900000,,2013-01-21 14:53:00,
2013-01-21 08:00:00,-5.0,-9.0,30.35,SSE,154,3.0,6.0,81,-99.99,,,-99.99,3.240000,,2013-01-21 15:00:00,
2013-01-21 08:53:00,-5.0,-9.0,30.35,SSE,154,3.0,6.0,81,-99.99,,,-99.99,3.240000,,2013-01-21 15:53:00,
2013-01-21 09:00:00,-3.0,-7.0,30.38,East,101,3.0,5.0,82,-99.99,,,-99.99,50.360001,,2013-01-21 16:00:00,
2013-01-21 09:53:00,-3.0,-7.0,30.38,East,101,3.0,5.0,82,-99.99,,,-99.99,50.360001,,2013-01-21 16:53:00,
2013-01-21 10:00:00,8.0,5.0,30.39,North,0,0.0,5.0,85,-99.99,,,-99.99,182.800003,,2013-01-21 17:00:00,
2013-01-21 10:53:00,8.0,5.0,30.39,North,0,0.0,5.0,85,-99.99,,,-99.99,182.800003,,2013-01-21 17:53:00,
2013-01-21 11:00:00,3.0,-1.0,30.39,South,185,2.0,0.0,85,-99.99,,,-99.99,356.600006,,2013-01-21 18:00:00,
2013-01-21 11:53:00,3.0,-1.0,30.39,South,185,2.0,0.0,85,-99.99,,,-99.99,356.600006,,2013-01-21 18:53:00,
2013-01-21 13:00:00,15.0,11.0,30.34,South,176,5.0,6.0,85,-99.99,,,-99.99,492.500000,,2013-01-21 20:00:00,
2013-01-21 13:53:00,15.0,11.0,30.34,South,176,5.0,6.0,85,-99.99,,,-99.99,492.500000,,2013-01-21 20:53:00,
2013-01-21 14:00:00,17.0,11.0,30.31,SSE,164,6.0,6.0,78,-99.99,,,-99.99,515.000000,,2013-01-21 21:00:00,
2013-01-21 14:53:00,17.0,11.0,30.31,SSE,164,6.0,6.0,78,-99.99,,,-99.99,515.000000,,2013-01-21 21:53:00,
2013-01-21 15:00:00,18.0,11.0,30.32,SE,142,4.0,6.0,71,-99.99,,,-99.99,432.899994,,2013-01-21 22:00:00,
2013-01-21 15:53:00,18.0,11.0,30.32,SE,142,4.0,6.0,71,-99.99,,,-99.99,432.899994,,2013-01-21 22:53:00,
2013-01-21 16:00:00,17.0,9.0,30.32,NNE,28,4.0,6.0,71,-99.99,,,-99.99,298.799988,,2013-01-21 23:00:00,
2013-01-21 16:53:00,17.0,9.0,30.32,NNE,28,4.0,6.0,71,-99.99,,,-99.99,298.799988,,2013-01-21 23:53:00,
2013-01-21 17:00:00,13.0,7.0,30.31,North,9,3.0,5.0,76,-99.99,,,-99.99,139.000000,,2013-01-22 00:00:00,
2013-01-21 17:53:00,13.0,7.0,30.31,North,9,3.0,5.0,76,-99.99,,,-99.99,139.000000,,2013-01-22 00:53:00,
2013-01-21 18:00:00,10.0,6.0,30.31,NNE,33,3.0,4.0,85,-99.99,,,-99.99,13.660000,,2013-01-22 01:00:00,
2013-01-21 18:52:00,10.0,6.0,30.31,NNE,33,3.0,4.0,85,-99.99,,,-99.99,13.660000,,2013-01-22 01:52:00,
2013-01-21 19:00:00,7.0,3.0,30.31,East,84,2.0,4.0,81,-99.99,,,-99.99,1.360000,,2013-01-22 02:00:00,
2013-01-21 19:53:00,7.0,3.0,30.31,East,84,2.0,4.0,81,-99.99,,,-99.99,1.360000,,2013-01-22 02:53:00,
2013-01-21 20:00:00,12.0,7.0,30.31,ESE,105,4.0,4.0,80,-99.99,,,-99.99,1.360000,,2013-01-22 03:00:00,
2013-01-21 20:53:00,12.0,7.0,30.31,ESE,105,4.0,4.0,80,-99.99,,,-99.99,1.360000,,2013-01-22 03:53:00,
2013-01-21 21:00:00,5.0,1.0,30.31,ENE,67,1.0,6.0,83,-99.99,,,-99.99,1.370000,,2013-01-22 04:00:00,
2013-01-21 21:52:00,5.0,1.0,30.31,ENE,67,1.0,6.0,83,-99.99,,,-99.99,1.370000,,2013-01-22 04:52:00,
2013-01-21 22:00:00,6.0,1.0,30.33,ESE,121,3.0,3.0,78,-99.99,,,-99.99,1.360000,,2013-01-22 05:00:00,
2013-01-21 22:53:00,6.0,1.0,30.33,ESE,121,3.0,3.0,78,-99.99,,,-99.99,1.360000,,2013-01-22 05:53:00,
2013-01-21 23:00:00,9.0,7.0,30.33,East,95,2.0,5.0,89,-99.99,,,-99.99,1.400000,,2013-01-22 06:00:00,
2013-01-21 23:53:00,9.0,7.0,30.33,East,95,2.0,5.0,89,-99.99,,,-99.99,1.400000,,2013-01-22 06:53:00,